• In Uzbekistan
  • List of Countries
  • For 7 days
  • Water Temperature
  • Satellite Maps
  • Weather Map
  • Weather Widgets
  • user-avatar
    Login

    Hourly Weather Escaldes-Engordany

    Today, 5 December, Monday

    Time Temperature Precipitation Wind Pressure Humidity
    00:00 +1°C° 0 mm 2 mps 638 mmHg 90%
    01:00 +1°C° 0 mm 2 mps 638 mmHg 90%
    02:00 +1°C° 0 mm 2 mps 638 mmHg 89%
    03:00 +1°C° 0 mm 2 mps 638 mmHg 89%
    04:00 +1°C° 0 mm 2 mps 638 mmHg 88%
    05:00 -1°C° 0 mm 2 mps 638 mmHg 88%
    06:00 -1°C° 0 mm 2 mps 638 mmHg 87%
    07:00 +2°C° 0 mm 2 mps 639 mmHg 84%
    08:00 +3°C° 0 mm 2 mps 640 mmHg 82%
    09:00 +5°C° 0 mm 2 mps 640 mmHg 79%
    10:00 +6°C° 0 mm 2 mps 641 mmHg 76%
    11:00 +7°C° 0 mm 2 mps 641 mmHg 74%
    12:00 +8°C° 0 mm 2 mps 642 mmHg 71%
    13:00 +7°C° 0.1 mm 2 mps 642 mmHg 75%
    14:00 +7°C° 0.1 mm 2 mps 642 mmHg 78%
    15:00 +6°C° 0.1 mm 2 mps 641 mmHg 82%
    16:00 +6°C° 0.1 mm 1 mps 641 mmHg 86%
    17:00 +4°C° 0.1 mm 1 mps 641 mmHg 90%
    18:00 +3°C° 0.1 mm 1 mps 640 mmHg 94%
    19:00 +3°C° 0 mm 1 mps 641 mmHg 94%
    20:00 +3°C° 0 mm 1 mps 641 mmHg 94%
    21:00 +3°C° 0 mm 1 mps 641 mmHg 93%
    22:00 +2°C° 0 mm 1 mps 641 mmHg 93%
    23:00 +2°C° 0 mm 1 mps 641 mmHg 93%

    Tomorrow, 6 December, Tuesday

    Time Temperature Precipitation Wind Pressure Humidity
    00:00 +2°C° 0 mm 1 mps 641 mmHg 94%
    01:00 +2°C° 0 mm 1 mps 641 mmHg 93%
    02:00 +2°C° 0 mm 1 mps 641 mmHg 93%
    03:00 +2°C° 0 mm 1 mps 641 mmHg 93%
    04:00 +1°C° 0 mm 1 mps 641 mmHg 92%
    05:00 +1°C° 0 mm 1 mps 642 mmHg 92%
    06:00 +1°C° 0 mm 1 mps 642 mmHg 91%
    07:00 +3°C° 0 mm 1 mps 642 mmHg 85%
    08:00 +4°C° 0 mm 1 mps 643 mmHg 80%
    09:00 +6°C° 0 mm 1 mps 644 mmHg 74%
    10:00 +7°C° 0 mm 1 mps 645 mmHg 69%
    11:00 +8°C° 0 mm 1 mps 645 mmHg 65%
    12:00 +8°C° 0 mm 0 mps 645 mmHg 60%
    13:00 +9°C° 0 mm 1 mps 645 mmHg 65%
    14:00 +8°C° 0 mm 1 mps 645 mmHg 70%
    15:00 +7°C° 0 mm 1 mps 645 mmHg 75%
    16:00 +6°C° 0 mm 1 mps 644 mmHg 80%
    17:00 +4°C° 0 mm 1 mps 644 mmHg 84%
    18:00 +2°C° 0 mm 1 mps 643 mmHg 89%
    19:00 +1°C° 0 mm 1 mps 643 mmHg 84%
    20:00 +1°C° 0 mm 1 mps 643 mmHg 79%
    21:00 +1°C° 0 mm 1 mps 643 mmHg 74%
    22:00 +1°C° 0 mm 1 mps 643 mmHg 71%
    23:00 +1°C° 0 mm 1 mps 643 mmHg 67%

    Day after tomorrow, 7 December, Wednesday

    Time Temperature Precipitation Wind Pressure Humidity
    00:00 0°C° 0 mm 1 mps 643 mmHg 64%
    01:00 0°C° 0 mm 1 mps 643 mmHg 64%
    02:00 0°C° 0 mm 1 mps 642 mmHg 65%
    03:00 -2°C° 0 mm 0 mps 642 mmHg 65%
    04:00 -2°C° 0 mm 0 mps 642 mmHg 64%
    05:00 -2°C° 0 mm 0 mps 642 mmHg 63%
    06:00 -2°C° 0 mm 0 mps 642 mmHg 62%
    07:00 0°C° 0 mm 0 mps 643 mmHg 60%
    08:00 +2°C° 0 mm 0 mps 645 mmHg 59%
    09:00 +4°C° 0 mm 0 mps 646 mmHg 57%
    10:00 +7°C° 0 mm 1 mps 646 mmHg 55%
    11:00 +8°C° 0 mm 1 mps 647 mmHg 52%
    12:00 +9°C° 0 mm 1 mps 647 mmHg 50%
    13:00 +8°C° 0 mm 1 mps 647 mmHg 57%
    14:00 +8°C° 0 mm 1 mps 646 mmHg 64%
    15:00 +7°C° 0 mm 1 mps 646 mmHg 71%
    16:00 +5°C° 0 mm 1 mps 645 mmHg 76%
    17:00 +3°C° 0 mm 1 mps 645 mmHg 81%
    18:00 0°C° 0 mm 1 mps 644 mmHg 86%
    19:00 0°C° 0 mm 1 mps 644 mmHg 85%
    20:00 0°C° 0 mm 1 mps 645 mmHg 84%
    21:00 0°C° 0 mm 1 mps 645 mmHg 83%
    22:00 +1°C° 0 mm 1 mps 645 mmHg 82%
    23:00 +1°C° 0 mm 1 mps 645 mmHg 82%

    8 December, Thursday

    Time Temperature Precipitation Wind Pressure Humidity
    00:00 +1°C° 0 mm 1 mps 645 mmHg 82%
    01:00 0°C° 0 mm 1 mps 645 mmHg 81%
    02:00 0°C° 0 mm 1 mps 645 mmHg 79%
    03:00 0°C° 0 mm 1 mps 645 mmHg 78%
    04:00 0°C° 0 mm 1 mps 645 mmHg 76%
    05:00 0°C° 0 mm 1 mps 645 mmHg 73%
    06:00 0°C° 0 mm 1 mps 644 mmHg 71%
    07:00 +1°C° 0 mm 1 mps 645 mmHg 67%
    08:00 +3°C° 0 mm 1 mps 646 mmHg 64%
    09:00 +4°C° 0 mm 0 mps 647 mmHg 61%
    10:00 +6°C° 0 mm 1 mps 648 mmHg 56%
    11:00 +8°C° 0 mm 1 mps 648 mmHg 52%
    12:00 +9°C° 0 mm 1 mps 649 mmHg 47%
    13:00 +8°C° 0 mm 1 mps 648 mmHg 54%
    14:00 +7°C° 0 mm 1 mps 648 mmHg 61%
    15:00 +7°C° 0 mm 1 mps 647 mmHg 68%
    16:00 +5°C° 0 mm 1 mps 646 mmHg 73%
    17:00 +3°C° 0 mm 1 mps 646 mmHg 79%
    18:00 0°C° 0 mm 1 mps 645 mmHg 84%
    19:00 0°C° 0 mm 1 mps 645 mmHg 82%
    20:00 0°C° 0 mm 1 mps 645 mmHg 80%
    21:00 0°C° 0 mm 1 mps 645 mmHg 78%
    22:00 0°C° 0 mm 1 mps 645 mmHg 76%
    23:00 0°C° 0 mm 1 mps 645 mmHg 75%

    9 December, Friday

    Time Temperature Precipitation Wind Pressure Humidity
    00:00 0°C° 0 mm 1 mps 645 mmHg 73%
    01:00 0°C° 0 mm 1 mps 645 mmHg 72%
    02:00 0°C° 0 mm 1 mps 645 mmHg 71%
    03:00 0°C° 0 mm 1 mps 644 mmHg 70%
    04:00 0°C° 0 mm 1 mps 644 mmHg 70%
    05:00 0°C° 0 mm 1 mps 644 mmHg 70%
    06:00 0°C° 0 mm 1 mps 644 mmHg 70%
    07:00 +1°C° 0 mm 1 mps 645 mmHg 66%
    08:00 +3°C° 0 mm 1 mps 646 mmHg 62%
    09:00 +5°C° 0 mm 1 mps 646 mmHg 58%
    10:00 +6°C° 0 mm 1 mps 647 mmHg 54%
    11:00 +8°C° 0 mm 1 mps 647 mmHg 51%
    12:00 +10°C° 0 mm 1 mps 647 mmHg 48%
    13:00 +9°C° 0 mm 1 mps 646 mmHg 54%
    14:00 +8°C° 0 mm 1 mps 646 mmHg 61%
    15:00 +7°C° 0 mm 1 mps 645 mmHg 68%
    16:00 +5°C° 0 mm 1 mps 644 mmHg 72%
    17:00 +3°C° 0 mm 1 mps 644 mmHg 77%
    18:00 +1°C° 0 mm 1 mps 643 mmHg 82%
    19:00 0°C° 0 mm 1 mps 643 mmHg 79%
    20:00 0°C° 0 mm 1 mps 643 mmHg 76%
    21:00 0°C° 0 mm 1 mps 643 mmHg 73%
    22:00 0°C° 0 mm 1 mps 643 mmHg 71%
    23:00 0°C° 0 mm 1 mps 642 mmHg 69%

    10 December, Saturday

    Time Temperature Precipitation Wind Pressure Humidity
    00:00 0°C° 0 mm 1 mps 642 mmHg 66%
    01:00 0°C° 0 mm 1 mps 642 mmHg 64%
    02:00 0°C° 0 mm 1 mps 642 mmHg 61%
    03:00 0°C° 0 mm 1 mps 641 mmHg 58%
    04:00 0°C° 0 mm 1 mps 641 mmHg 57%
    05:00 0°C° 0 mm 1 mps 641 mmHg 57%
    06:00 0°C° 0 mm 1 mps 641 mmHg 56%
    07:00 +1°C° 0 mm 1 mps 642 mmHg 54%
    08:00 +3°C° 0 mm 1 mps 642 mmHg 52%
    09:00 +5°C° 0 mm 1 mps 643 mmHg 49%
    10:00 +7°C° 0 mm 1 mps 644 mmHg 46%
    11:00 +8°C° 0 mm 1 mps 644 mmHg 44%
    12:00 +9°C° 0 mm 2 mps 644 mmHg 41%
    13:00 +9°C° 0 mm 1 mps 644 mmHg 48%
    14:00 +8°C° 0 mm 1 mps 643 mmHg 55%
    15:00 +7°C° 0 mm 1 mps 642 mmHg 62%
    16:00 +5°C° 0 mm 1 mps 642 mmHg 64%
    17:00 +3°C° 0 mm 1 mps 641 mmHg 67%
    18:00 +1°C° 0 mm 1 mps 640 mmHg 69%
    19:00 +1°C° 0 mm 1 mps 640 mmHg 67%
    20:00 +1°C° 0 mm 1 mps 640 mmHg 64%
    21:00 +1°C° 0 mm 1 mps 640 mmHg 62%
    22:00 +1°C° 0 mm 1 mps 640 mmHg 60%
    23:00 +1°C° 0 mm 1 mps 640 mmHg 59%
    Show more